Location: Le Gr�zie
(43.6000°N, 13.5000°E)
Time: 11:23:32
(UTC+00:00)

Landsat 7 - Pass Details

Date: 09 April 2020
Orbit: 701 x 703 km, 98.1° (Epoch: 04 June)

Event Time Altitude Azimuth Distance (km) Brightness Sun altitude
Exits shadow 19:46:51 40° 78° (ENE) 1,033 4.3 -21.3°
Maximum altitude 19:47:06 40° 70° (ENE) 1,028 4.4 -21.4°
Drops below altitude 10° 19:51:33 10° 1° (N) 2,180 6.8 -22.0°
Sets 19:53:54 0° 354° (N) 3,102 7.8 -22.4°
